DW4714 Weather Reports


Display with metric or nautical units.
time (UTC)temp
F
wind
direction
speed
MPH
gust
MPH
rain 1hr
in
rain 24hr
in
rain mn
in
humidity
%
barometer
mb
20260504050717 37 0.0 0.0 0.00 0.00 0.00 61 1009.3
20260504045717 38 0.0 0.0 0.00 0.00 0.00 61 1009.4
20260504044717 38 0.0 0.0 0.00 0.00 0.00 60 1009.3
20260504043717 38 0.0 0.0 0.00 0.00 0.00 60 1009.4
20260504042717 38 0.0 0.0 0.00 0.00 0.00 59 1009.3
20260504041717 39 0.0 0.0 0.00 0.00 0.00 57 1009.1
20260504040717 39 0.0 0.0 0.00 0.00 0.00 57 1009.1
20260504035717 39 0.0 0.0 0.00 0.00 0.00 57 1009.0
20260504034717 40 0.0 0.0 0.00 0.00 0.00 56 1008.8
20260504033737 40 0.0 0.0 0.00 0.00 0.00 55 1008.7
20260504032737 40 0.0 0.0 0.00 0.00 0.00 55 1008.7
20260504031717 41 0.0 0.0 0.00 0.00 0.00 54 1008.6
20260504030717 41 0.0 0.0 0.00 0.00 0.00 53 1008.6
20260504025717 42 0.0 0.0 0.00 0.00 0.00 53 1008.6
20260504024717 42 0.0 0.0 0.00 0.00 0.00 52 1008.7
20260504023716 42 0.0 0.0 0.00 0.00 0.00 51 1008.6
20260504022717 43 0.0 0.0 0.00 0.00 0.00 50 1008.7
20260504021717 44 0.0 0.0 0.00 0.00 0.00 49 1008.7
20260504020717 44 0.0 0.0 0.00 0.00 0.00 48 1008.7
20260504015757 45 0.0 0.0 0.00 0.00 0.00 47 1008.6
20260504014717 46 0.0 0.0 0.00 0.00 0.00 45 1008.5
20260504013717 47 0.0 0.0 0.00 0.00 0.00 44 1008.5
20260504012717 47 0.0 0.0 0.00 0.00 0.00 43 1008.3
20260504011717 48 0.0 0.0 0.00 0.00 0.00 41 1008.3
20260504010717 49 0.0 0.0 0.00 0.00 0.00 40 1008.3
20260504005717 50 0.0 0.0 0.00 0.00 0.00 38 1008.1
20260504004757 51 0.0 0.0 0.00 0.00 0.00 36 1008.1
20260504003717 53 0.0 0.0 0.00 0.00 0.00 35 1007.9
20260504002717 54 0.0 0.0 0.00 0.00 0.00 33 1007.8
20260504001736 55 0.0 0.0 0.00 0.00 0.00 31 1007.8
20260504000717 56 0.0 0.0 0.00 0.00 0.00 28 1007.6
20260503235717 56 0.0 0.0 0.00 0.00 0.00 25 1007.6
20260503234737 57 0.0 0.0 0.00 0.00 0.00 25 1007.5
20260503233737 57 0.0 0.0 0.00 0.00 0.00 23 1007.4
20260503232717 58 0.0 0.0 0.00 0.00 0.00 22 1007.3
20260503231717 58 0.0 0.0 0.00 0.00 0.00 23 1007.2
20260503230717 58 0.0 0.0 0.00 0.00 0.00 20 1007.2
20260503225717 59 0.0 0.0 0.00 0.00 0.00 20 1007.2
20260503224717 59 0.0 0.0 0.00 0.00 0.00 21 1007.1
20260503223717 59 0.0 0.0 0.00 0.00 0.00 20 1007.1
20260503222717 59 0.0 0.0 0.00 0.00 0.00 20 1007.3
20260503221716 59 0.0 0.0 0.00 0.00 0.00 19 1007.2
20260503220717 59 0.0 0.0 0.00 0.00 0.00 18 1007.3
20260503215717 59 0.0 0.0 0.00 0.00 0.00 18 1007.2
20260503214736 59 0.0 0.0 0.00 0.00 0.00 18 1007.1
20260503213716 60 0.0 0.0 0.00 0.00 0.00 17 1007.1
20260503212757 60 0.0 0.0 0.00 0.00 0.00 17 1006.9
20260503211716 60 0.0 0.0 0.00 0.00 0.00 16 1006.8
20260503210716 60 0.0 0.0 0.00 0.00 0.00 15 1006.8
20260503205716 60 0.0 0.0 0.00 0.00 0.00 17 1006.8
20260503204716 60 0.0 0.0 0.00 0.00 0.00 15 1006.8
20260503203716 59 0.0 0.0 0.00 0.00 0.00 16 1006.9
20260503202717 60 0.0 0.0 0.00 0.00 0.00 15 1007.0
20260503201717 61 0.0 0.0 0.00 0.00 0.00 15 1007.2
20260503200716 61 0.0 0.0 0.00 0.00 0.00 16 1007.3
20260503195716 61 0.0 0.0 0.00 0.00 0.00 18 1007.3
20260503194716 60 0.0 0.0 0.00 0.00 0.00 17 1007.4
20260503193736 60 0.0 0.0 0.00 0.00 0.00 16 1007.6
20260503192736 60 0.0 0.0 0.00 0.00 0.00 18 1007.6
20260503191716 60 0.0 0.0 0.00 0.00 0.00 18 1007.8
20260503190716 59 0.0 0.0 0.00 0.00 0.00 18 1008.0
20260503185718 60 0.0 0.0 0.00 0.00 0.00 17 1008.0
20260503184736 59 0.0 0.0 0.00 0.00 0.00 18 1008.1
20260503183716 59 0.0 0.0 0.00 0.00 0.00 18 1008.2
20260503182716 58 0.0 0.0 0.00 0.00 0.00 19 1008.1
20260503181716 57 0.0 0.0 0.00 0.00 0.00 20 1008.4
20260503180717 57 0.0 0.0 0.00 0.00 0.00 21 1008.2
20260503175716 57 0.0 0.0 0.00 0.00 0.00 19 1008.6
20260503174716 56 0.0 0.0 0.00 0.00 0.00 23 1008.4
20260503173716 56 0.0 0.0 0.00 0.00 0.00 19 1008.6
20260503172716 56 0.0 0.0 0.00 0.00 0.00 22 1008.9
20260503171716 55 0.0 0.0 0.00 0.00 0.00 26 1008.8
20260503170716 54 0.0 0.0 0.00 0.00 0.00 21 1008.9
20260503150716 48 0.0 0.0 0.00 0.01 0.00 33 1009.7
20260503130715 46 0.0 0.0 0.00 0.02 0.00 40 1010.0
20260503110737 42 0.0 0.0 0.00 0.02 0.00 49 1009.3
20260503080737 43 45 1.0 3.0 0.00 0.04 0.00 44 1008.1
20260503072717 44 23 0.0 2.0 0.00 0.05 0.00 43 1008.0
20260503071717 44 0 2.0 5.0 0.00 0.05 0.00 43 1007.9
20260503070717 44 23 2.0 5.0 0.00 0.05 0.00 42 1007.8